Dewpoint
34 34 35 35 36 36 36 36 36 36 36 36 37 37 38 41 43 45 50 52 61 66 67 65 66 63 61 62 62 62 62 61 62 61 60 60 61 62 62 62 63 63 63
34 34 34 35 35 35 35 35 35 35 34 35 36 37 38 39 41 43 46 50 53 64 65 65 65 63 61 62 62 61 61 61 62 59 57 56 56 59 61 62 62 62 63
33 34 34 34 34 34 35 34 35 34 34 35 35 36 37 39 41 43 47 50 51 58 64 65 65 64 62 61 62 61 60 60 62 60 57 53 52 55 58 61 62 61 62
33 34 33 34 34 34 35 34 35 34 33 35 35 35 36 37 39 42 44 46 50 50 61 64 64 64 62 61 62 61 61 60 60 59 58 56 56 54 55 57 59 61 61
33 33 33 33 34 34 34 33 34 34 33 35 35 35 36 38 40 41 43 46 49 52 52 62 63 63 64 61 62 62 61 61 60 60 58 57 57 57 56 54 56 58 61
33 33 32 33 34 33 33 33 34 33 34 35 35 35 37 37 39 41 43 45 49 50 47 61 62 58 64 62 62 62 61 61 61 60 59 57 55 57 56 54 56 57 59
32 32 32 33 33 32 33 33 34 33 34 34 35 36 37 39 41 43 46 48 50 50 51 59 60 53 60 63 62 62 61 61 60 61 59 59 57 58 57 56 55 55 56
32 32 34 34 32 31 32 34 34 33 34 34 35 36 38 41 42 44 46 51 51 51 55 59 58 56 55 58 63 63 62 61 61 61 60 60 59 59 57 56 56 54 54
32 32 34 34 31 31 32 34 34 34 36 35 36 36 38 40 42 45 50 51 51 48 50 58 57 53 50 54 62 63 62 61 62 61 61 60 60 60 59 57 56 55 52
32 33 34 33 31 31 32 33 34 34 36 35 37 37 37 39 41 44 46 50 56 51 56 56 58 58 54 59 57 61 62 62 62 62 60 60 60 60 59 58 57 57 55
32 32 33 33 32 31 31 32 33 33 35 36 37 37 37 40 41 43 45 48 54 52 50 48 55 55 56 57 56 53 62 62 62 62 61 60 60 60 60 59 58 58 57
32 32 33 32 32 31 30 30 32 33 33 35 35 36 37 38 40 40 43 46 49 57 52 51 50 53 51 54 54 54 55 61 62 62 62 61 61 60 60 59 59 59 59
31 32 32 30 31 31 30 30 30 32 33 33 35 35 36 36 37 40 42 44 45 48 52 57 56 55 52 50 53 55 61 62 61 62 62 62 61 61 61 60 59 59 59
30 31 30 28 29 30 30 29 30 31 32 32 33 33 34 35 36 38 40 41 42 43 46 50 56 57 54 55 57 59 61 62 62 62 63 63 63 61 61 61 60 60 59
28 29 30 28 28 28 29 28 30 29 30 31 32 33 33 33 34 35 37 39 40 41 42 47 52 48 44 40 44 48 60 61 61 60 60 61 61 56 59 61 60 59 59
27 28 28 29 29 28 27 28 30 29 29 30 31 32 31 31 32 34 35 37 37 38 40 40 40 39 38 36 37 42 59 61 61 60 61 61 53 52 49 48 50 57 59
26 27 27 28 28 27 26 27 28 28 28 30 30 31 30 31 30 32 34 35 35 35 36 36 37 37 35 35 37 37 49 61 61 61 61 61 60 54 56 47 46 42 41
25 25 24 25 25 25 25 26 26 26 27 29 30 30 30 30 29 29 31 34 34 34 33 33 33 34 33 34 35 37 48 57 58 58 59 58 56 57 54 50 46 42 41
24 24 24 24 24 23 24 24 24 25 26 28 29 31 30 28 29 28 29 30 33 33 33 32 32 31 32 33 35 37 49 44 42 40 41 53 53 48 49 48 40 37 36
23 22 23 24 23 23 23 23 24 24 26 28 29 31 31 28 27 27 28 29 31 32 32 31 31 31 30 32 34 37 43 41 37 36 35 35 37 40 44 45 42 37 34
22 22 22 23 22 23 24 23 23 23 26 29 29 31 30 29 27 26 26 26 28 29 29 30 30 30 30 31 33 34 35 34 34 33 32 33 34 35 36 38 39 37 35
21 21 21 21 22 23 24 23 24 24 26 28 28 30 29 31 27 26 25 25 25 26 27 27 27 29 31 31 32 32 32 33 32 31 32 32 33 33 34 34 34 34 34
20 21 20 20 21 22 23 24 24 26 26 27 26 28 29 29 28 27 24 24 25 25 25 25 26 26 29 31 32 32 31 30 30 30 31 31 31 31 30 31 31 32 33
20 20 19 19 19 21 23 23 25 27 26 26 26 27 28 28 29 26 25 25 25 25 25 25 25 27 28 30 32 31 30 30 29 29 29 29 29 28 28 28 28 29 29
20 19 20 18 19 21 22 22 24 27 28 26 26 28 27 28 28 28 26 26 28 28 26 26 27 27 28 30 32 32 30 30 29 29 28 27 27 26 26 26 27 27 28
18 19 20 18 19 21 22 23 25 27 28 27 26 27 28 28 28 28 28 30 29 28 30 30 29 29 31 33 32 31 31 30 30 28 27 26 26 25 25 25 25 26 26
Lifted_Index
9 10 10 10 9 9 9 9 9 9 9 9 9 9 8 8 8 7 6 4 1 -3 -5 -5 -5 -4 -4 -3 -3 -2 -2 -2 -2 -2 -2 -2 -1 -1 -1 -1 -1 -1 -1
9 10 10 10 10 10 10 10 10 10 10 10 9 9 8 8 8 8 7 5 2 -1 -4 -5 -5 -4 -4 -3 -3 -2 -2 -2 -2 -2 -2 -1 -1 -1 -1 -1 -1 -1 -1
10 10 10 10 10 10 10 10 10 11 12 11 10 9 8 7 7 7 7 6 4 1 -2 -4 -5 -5 -4 -4 -3 -3 -2 -2 -2 -1 -1 -1 -1 -0 0 -0 -1 -1 -1
10 11 11 10 10 11 11 11 11 12 12 11 10 8 6 6 6 6 6 5 4 3 0 -3 -4 -4 -4 -4 -4 -4 -3 -2 -2 -2 -1 -0 0 0 1 1 0 -0 -0
10 11 11 10 11 11 12 11 11 11 11 10 9 8 6 5 5 5 5 4 3 3 1 -2 -3 -3 -4 -4 -4 -5 -4 -3 -2 -2 -1 -0 -0 -0 0 1 1 1 0
10 10 10 10 11 12 12 11 10 10 10 10 9 8 7 6 5 5 5 5 3 2 1 -2 -2 -1 -2 -3 -4 -5 -5 -4 -3 -2 -2 -1 -1 -1 -1 0 1 1 1
10 10 10 10 11 12 11 10 9 9 9 9 8 7 7 6 5 5 4 4 3 2 0 -2 -2 0 0 -2 -4 -5 -5 -5 -4 -3 -2 -1 -1 -1 -2 -1 -0 0 0
10 10 10 11 12 12 11 10 9 9 9 8 7 7 6 5 4 3 3 2 2 2 0 -2 -2 -0 2 1 -2 -5 -6 -5 -5 -4 -3 -2 -1 -2 -2 -2 -1 -0 -0
10 10 11 11 12 12 12 10 9 9 9 8 8 7 6 4 3 2 1 1 1 1 0 -1 -2 -1 2 2 -1 -4 -5 -5 -5 -4 -3 -2 -2 -2 -2 -2 -1 -1 -0
10 10 10 11 12 13 12 10 9 9 9 9 8 7 6 4 2 1 0 -0 -0 0 1 0 -1 -0 1 2 1 -1 -4 -5 -5 -4 -4 -3 -2 -2 -2 -2 -2 -1 -0
10 10 10 11 12 13 13 11 9 9 10 9 8 7 6 4 2 1 0 -0 -1 0 1 1 1 1 1 2 3 2 -1 -4 -5 -5 -4 -4 -3 -3 -3 -3 -2 -1 -1
10 10 10 11 11 13 13 11 10 10 10 10 9 8 6 3 2 1 1 0 0 -0 0 1 1 1 2 2 3 3 1 -3 -5 -5 -5 -4 -4 -3 -3 -3 -3 -2 -1
10 10 10 10 11 12 12 12 11 11 11 11 10 8 6 4 2 2 2 2 1 -0 -1 -0 1 1 2 2 3 2 0 -3 -5 -5 -5 -5 -5 -4 -4 -4 -3 -3 -2
10 10 10 10 10 11 12 12 12 12 12 12 11 9 7 5 4 3 3 3 2 1 0 0 0 1 1 2 1 0 -1 -4 -5 -5 -5 -5 -5 -5 -5 -4 -4 -3 -3
10 10 10 10 10 11 12 13 13 13 12 12 11 11 9 8 6 4 3 3 2 1 1 1 0 0 1 1 -0 -1 -2 -4 -5 -5 -4 -4 -5 -5 -5 -5 -4 -4 -3
10 10 10 10 10 11 12 13 13 13 13 12 12 12 11 9 7 6 4 3 2 1 1 1 0 0 0 0 -0 -1 -2 -3 -4 -4 -3 -3 -4 -5 -5 -4 -4 -3 -3
10 10 10 11 11 12 13 13 13 14 13 13 12 13 12 11 9 8 6 4 3 2 1 1 1 1 1 1 1 -0 -1 -2 -3 -3 -3 -3 -4 -4 -4 -4 -3 -3 -3
11 11 11 12 12 13 13 13 13 13 13 13 13 13 13 12 11 9 8 6 5 4 3 2 1 2 2 2 1 1 -0 -1 -2 -3 -3 -3 -4 -4 -3 -3 -2 -2 -2
11 12 12 13 13 13 14 14 13 13 13 13 14 14 13 13 12 11 10 9 8 6 5 4 3 2 2 2 2 1 0 -0 -1 -2 -2 -2 -3 -3 -2 -2 -1 -1 -0
12 12 13 13 13 14 14 13 13 12 13 14 15 15 14 13 12 12 11 11 10 8 7 6 5 4 4 3 2 1 1 0 -0 -0 -0 -1 -1 -1 -1 0 1 1 1
12 12 12 13 13 14 14 13 13 13 14 15 16 16 15 14 13 13 12 11 10 9 9 8 7 7 6 5 4 3 2 2 2 1 1 1 1 1 1 2 2 3 3
11 12 12 12 13 14 13 12 12 13 14 15 15 16 16 15 14 13 13 12 11 10 9 9 8 8 7 7 7 6 5 4 3 3 2 2 3 3 3 3 3 4 4
11 11 12 12 12 13 13 12 12 13 14 14 14 15 15 15 15 14 13 12 12 11 10 9 9 8 8 9 9 8 7 6 5 4 4 4 4 4 4 3 3 4 4
11 11 11 11 11 12 12 12 12 12 12 13 14 14 15 15 15 15 14 14 13 12 11 10 10 9 9 10 10 10 9 8 8 7 6 5 5 4 4 3 4 4 4
10 10 10 9 10 11 11 12 13 12 12 13 13 14 14 15 15 16 16 16 17 15 14 13 12 12 12 12 13 12 11 10 10 9 7 6 5 5 4 4 5 5 5
9 9 9 9 9 10 11 12 13 13 12 13 13 14 14 15 15 15 16 18 19 18 17 16 15 15 15 15 14 13 12 12 11 10 7 6 6 6 5 6 6 6 6